#timestamp,LO_Frequency,Hit,Temp,Hum 
1479420015.2,286047048.0,N,0.0,0.0
1479420035.0,286047050.2,N,0.0,0.0
1479420035.9,286047050.2,N,0.0,0.0
1479420055.8,286047050.7,N,0.0,0.0
1479420075.6,286047050.4,N,0.0,0.0
1479420095.5,286047049.4,N,0.0,0.0
1479420115.3,286047051.4,N,0.0,0.0
1479420135.1,286047051.7,N,0.0,0.0
1479420155.9,286047052.0,N,0.0,0.0
1479420175.7,286047051.6,N,0.0,0.0
1479420195.5,286047052.8,N,0.0,0.0
1479420215.4,286047054.0,N,0.0,0.0
1479420235.2,286047053.5,N,0.0,0.0
1479420255.1,286047050.9,N,0.0,0.0
1479420256.0,286047050.9,N,0.0,0.0
1479420275.8,286047052.8,N,0.0,0.0
1479420295.6,286047053.1,N,0.0,0.0
1479420315.5,286047050.9,N,0.0,0.0
1479420335.3,286047051.2,N,0.0,0.0
1479420355.2,286047053.0,N,0.0,0.0
1479420375.9,286047052.8,N,0.0,0.0
1479420395.7,286047053.3,N,0.0,0.0
1479420415.6,286047052.6,N,0.0,0.0
1479420435.4,286047053.5,N,0.0,0.0
1479420455.2,286047050.9,N,0.0,0.0
1479420475.1,286047052.6,N,0.0,0.0
1479420476.0,286047052.6,N,0.0,0.0
1479420495.8,286047053.1,N,0.0,0.0
1479420515.7,286047051.4,N,0.0,0.0
1479420535.5,286047052.0,N,0.0,0.0
1479420555.3,286047051.4,N,0.0,0.0
1479420575.2,286047054.0,N,0.0,0.0
1479420595.0,286047052.6,N,0.0,0.0
1479420595.9,286047052.6,N,0.0,0.0
1479420615.7,286047052.5,N,0.0,0.0
1479420635.6,286047053.7,N,0.0,0.0
1479420655.4,286047050.9,N,0.0,0.0
1479420675.3,286047053.4,N,0.0,0.0
1479420695.1,286047051.1,N,0.0,0.0
1479420696.0,286047051.1,N,0.0,0.0
1479420715.8,286047054.0,N,0.0,0.0
1479420735.7,286047055.5,N,0.0,0.0
1479420755.5,286047054.6,N,0.0,0.0
1479420775.3,286047056.7,N,0.0,0.0
1479420795.2,286047056.9,N,0.0,0.0
1479420815.0,286047056.0,N,0.0,0.0
1479420815.9,286047056.0,N,0.0,0.0
1479420835.8,286047056.0,N,0.0,0.0
1479420855.6,286047056.6,N,0.0,0.0
1479420875.4,286047058.2,N,0.0,0.0
1479420895.3,286047056.9,N,0.0,0.0
1479420915.1,286047058.7,N,0.0,0.0
1479420935.8,286047058.1,N,0.0,0.0
1479420955.7,286047057.8,N,0.0,0.0
1479420975.5,286047060.1,N,0.0,0.0
1479420995.4,286047059.6,N,0.0,0.0
1479421015.2,286047058.1,N,0.0,0.0
1479421035.0,286047058.3,N,0.0,0.0
1479421035.9,286047058.3,N,0.0,0.0
1479421055.8,286047060.3,N,0.0,0.0
1479421075.6,286047056.1,N,0.0,0.0
1479421095.5,286047058.5,N,0.0,0.0
1479421115.3,286047057.6,N,0.0,0.0
1479421135.1,286047055.7,N,0.0,0.0
1479421155.9,286047057.6,N,0.0,0.0
1479421175.7,286047058.6,N,0.0,0.0
1479421195.5,286047057.4,N,0.0,0.0
1479421215.4,286047059.8,N,0.0,0.0
1479421235.2,286047060.1,N,0.0,0.0
1479421255.0,286047058.5,N,0.0,0.0
1479421256.0,286047058.5,N,0.0,0.0
1479421275.8,286047055.8,N,0.0,0.0
1479421295.6,286047055.9,N,0.0,0.0
1479421315.5,286047057.5,N,0.0,0.0
1479421335.3,286047060.1,N,0.0,0.0
1479421355.1,286047057.3,N,0.0,0.0
1479421375.9,286047058.6,N,0.0,0.0
1479421395.7,286047060.4,N,0.0,0.0
1479421415.6,286047059.5,N,0.0,0.0
1479421435.4,286047060.1,N,0.0,0.0
1479421455.2,286047057.6,N,0.0,0.0
1479421475.1,286047059.7,N,0.0,0.0
1479421476.0,286047059.7,N,0.0,0.0
1479421495.8,286047060.1,N,0.0,0.0
1479421515.7,286047061.6,N,0.0,0.0
1479421535.5,286047061.4,N,0.0,0.0
1479421555.3,286047061.2,N,0.0,0.0
1479421575.2,286047061.4,N,0.0,0.0
1479421595.9,286047059.1,N,0.0,0.0
1479421615.7,286047061.5,N,0.0,0.0
1479421635.6,286047063.1,N,0.0,0.0
1479421655.4,286047058.9,N,0.0,0.0
1479421675.2,286047060.6,N,0.0,0.0
1479421695.1,286047061.8,N,0.0,0.0
1479421696.0,286047061.8,N,0.0,0.0
1479421715.8,286047060.6,N,0.0,0.0
1479421735.7,286047060.9,N,0.0,0.0
1479421755.5,286047063.1,N,0.0,0.0
1479421775.3,286047062.8,N,0.0,0.0
1479421795.2,286047062.1,N,0.0,0.0
1479421815.0,286047063.5,N,0.0,0.0
1479421815.9,286047063.5,N,0.0,0.0
1479421835.8,286047062.2,N,0.0,0.0
1479421855.6,286047062.3,N,0.0,0.0
1479421875.4,286047064.8,N,0.0,0.0
1479421895.3,286047065.1,N,0.0,0.0
1479421915.1,286047062.6,N,0.0,0.0
1479421935.8,286047064.7,N,0.0,0.0
1479421955.7,286047063.8,N,0.0,0.0
1479421975.5,286047066.1,N,0.0,0.0
1479421995.4,286047065.7,N,0.0,0.0
1479422015.2,286047066.5,N,0.0,0.0
1479422035.0,286047068.0,N,0.0,0.0
1479422035.9,286047068.0,N,0.0,0.0
1479422055.8,286047065.7,N,0.0,0.0
1479422075.6,286047068.3,N,0.0,0.0
1479422095.5,286047070.0,N,0.0,0.0
1479422115.3,286047069.9,N,0.0,0.0
1479422135.1,286047067.0,N,0.0,0.0
1479422155.9,286047068.8,N,0.0,0.0
1479422175.7,286047069.1,N,0.0,0.0
1479422195.5,286047071.6,N,0.0,0.0
1479422215.4,286047068.5,N,0.0,0.0
1479422235.2,286047071.1,N,0.0,0.0
1479422255.1,286047071.3,N,0.0,0.0
1479422256.0,286047071.3,N,0.0,0.0
1479422275.8,286047071.4,N,0.0,0.0
1479422295.6,286047071.3,N,0.0,0.0
1479422315.5,286047071.0,N,0.0,0.0
1479422335.3,286047068.5,N,0.0,0.0
1479422355.2,286047070.4,N,0.0,0.0
1479422375.9,286047071.6,N,0.0,0.0
1479422395.7,286047071.0,N,0.0,0.0
1479422415.6,286047071.1,N,0.0,0.0
1479422435.4,286047073.2,N,0.0,0.0
1479422455.2,286047070.8,N,0.0,0.0
1479422475.1,286047070.3,N,0.0,0.0
1479422476.0,286047070.3,N,0.0,0.0
1479422495.8,286047071.4,N,0.0,0.0
1479422515.7,286047070.4,N,0.0,0.0
1479422535.5,286047068.6,N,0.0,0.0
1479422555.3,286047071.4,N,0.0,0.0
1479422575.2,286047070.1,N,0.0,0.0
1479422595.0,286047072.7,N,0.0,0.0
1479422595.9,286047072.7,N,0.0,0.0
1479422615.7,286047070.6,N,0.0,0.0
1479422635.6,286047070.1,N,0.0,0.0
1479422655.4,286047073.2,N,0.0,0.0
1479422675.3,286047070.5,N,0.0,0.0
1479422695.1,286047071.4,N,0.0,0.0
1479422715.8,286047071.0,N,0.0,0.0
1479422735.7,286047071.2,N,0.0,0.0
1479422755.5,286047070.8,N,0.0,0.0
1479422775.4,286047069.1,N,0.0,0.0
1479422795.2,286047068.9,N,0.0,0.0
1479422815.0,286047069.0,N,0.0,0.0
1479422815.9,286047069.0,N,0.0,0.0
1479422835.8,286047071.0,N,0.0,0.0
1479422855.6,286047071.1,N,0.0,0.0
1479422875.4,286047068.5,N,0.0,0.0
1479422895.3,286047071.3,N,0.0,0.0
1479422915.1,286047071.3,N,0.0,0.0
1479422935.9,286047070.7,N,0.0,0.0
1479422955.7,286047070.2,N,0.0,0.0
1479422975.5,286047070.6,N,0.0,0.0
1479422995.4,286047072.4,N,0.0,0.0
1479423015.2,286047073.2,N,0.0,0.0
1479423035.0,286047071.9,N,0.0,0.0
1479423036.0,286047071.9,N,0.0,0.0
1479423055.8,286047071.8,N,0.0,0.0
1479423075.6,286047074.3,N,0.0,0.0
1479423095.5,286047071.8,N,0.0,0.0
1479423115.3,286047074.3,N,0.0,0.0
1479423135.1,286047074.4,N,0.0,0.0
1479423155.9,286047074.1,N,0.0,0.0
1479423175.7,286047072.1,N,0.0,0.0
1479423195.5,286047071.9,N,0.0,0.0
1479423215.4,286047074.4,N,0.0,0.0
1479423235.2,286047074.1,N,0.0,0.0
1479423255.1,286047074.5,N,0.0,0.0
1479423256.0,286047074.5,N,0.0,0.0
1479423275.8,286047074.1,N,0.0,0.0
1479423295.6,286047074.5,N,0.0,0.0
1479423315.5,286047073.7,N,0.0,0.0
1479423335.3,286047073.4,N,0.0,0.0
1479423355.1,286047073.3,N,0.0,0.0
1479423375.9,286047076.3,N,0.0,0.0
1479423395.7,286047075.2,N,0.0,0.0
1479423415.6,286047076.1,N,0.0,0.0
1479423435.4,286047075.6,N,0.0,0.0
1479423455.2,286047075.1,N,0.0,0.0
1479423475.1,286047077.5,N,0.0,0.0
1479423476.0,286047077.5,N,0.0,0.0
1479423495.8,286047077.7,N,0.0,0.0
1479423515.6,286047077.4,N,0.0,0.0
1479423535.5,286047077.5,N,0.0,0.0
1479423555.3,286047077.0,N,0.0,0.0
1479423575.2,286047076.8,N,0.0,0.0
1479423595.9,286047076.6,N,0.0,0.0
